Location: Caltech
(34.1382°N, 118.1253°W)
Time: 17:19:26
(UTC-07:00)

KITSAT 1 - Visible Passes

Search period start: 25 October 2014 00:00
Search period end: 03 November 2014 23:00
Orbit: 1314 x 1317 km, 66.1° (Epoch: 23 October)

Date Brightness Start Highest point End Pass type
(mag) Time Alt. Az. Time Alt. Az. Time Alt. Az.
25 Oct 11.6 19:43:32 10° N 19:48:19 17° NE 19:48:19 17° NE visible
25 Oct 11.7 21:37:07 10° NNW 21:40:18 27° NNW 21:40:18 27° NNW visible
26 Oct 11.3 19:58:51 10° N 20:04:12 24° NE 20:04:12 24° NE visible
26 Oct 11.8 21:53:15 10° NNW 21:56:12 25° NW 21:56:12 25° NW visible
27 Oct 11.0 20:14:26 10° NNW 20:20:10 33° NNE 20:20:10 33° NNE visible
27 Oct 12.0 22:09:36 10° NW 22:12:10 22° NW 22:12:10 22° NW visible
28 Oct 11.8 18:38:14 10° NNE 18:40:35 11° NE 18:42:56 10° NE visible
28 Oct 10.7 20:30:13 10° NNW 20:36:13 44° NNE 20:36:13 44° NNE visible
28 Oct 12.3 22:26:17 10° NW 22:28:13 17° WNW 22:28:13 17° WNW visible
29 Oct 11.6 18:52:39 10° N 18:57:30 17° NE 19:00:21 14° ENE visible
29 Oct 10.5 20:46:09 10° NNW 20:52:22 56° N 20:52:22 56° N visible
29 Oct 12.6 22:43:35 10° WNW 22:44:23 12° WNW 22:44:23 12° WNW visible
30 Oct 11.2 19:07:56 10° N 19:14:12 24° NE 19:16:37 21° ENE visible
30 Oct 10.6 21:02:16 10° NNW 21:08:39 58° NW 21:08:39 58° NW visible
31 Oct 10.8 19:23:30 10° N 19:30:44 35° NE 19:33:04 30° E visible
31 Oct 11.0 21:18:36 10° NW 21:25:07 46° W 21:25:07 46° W visible
01 Nov 10.3 19:39:16 10° NNW 19:47:05 50° ENE 19:49:44 38° ESE visible
01 Nov 11.5 21:35:16 10° NW 21:41:48 31° WSW 21:41:48 31° WSW visible
02 Nov 10.1 18:55:12 10° NNW 19:03:17 74° ENE 19:06:45 38° SE visible
02 Nov 12.1 20:52:30 10° WNW 20:57:48 19° WSW 20:58:51 19° WSW visible
03 Nov 11.2 17:17:01 10° N 17:23:12 23° NE 17:29:21 10° E visible
03 Nov 10.3 19:11:18 10° NNW 19:19:22 76° WSW 19:24:19 26° SSE visible
03 Nov 12.6 21:11:50 10° W 21:13:25 11° W 21:15:01 10° WSW visible
